Tracking 17152 objects as of 5-May-2015
HD Live streaming from Space Station

COSMOS 2251 DEB

Track COSMOS 2251 DEB now!
10-day predictions
COSMOS 2251 DEB is classified as:


NORAD ID: 34131
Int'l Code: 1993-036LC
Perigee: 715.3 km
Apogee: 727.7 km
Inclination: 74.1 °
Period: 99.1 minutes
Semi major axis: 7092 km
RCS: 0.018 m2 (small)
Launch date: June 16, 1993
Source: Commonwealth of Independent States (former USSR) (CIS)

Note: This is SATELLITE DEBRIS
Your satellite tracking list
Your tracking list is empty





NASA's NSSDC Master Catalog

Two Line Element Set (TLE):
1 34131U 93036LC  15124.80465600  .00005133  00000-0  12366-2 0  9997
2 34131 074.1230 160.1418 0008727 010.3533 113.0894 14.53472321327001

Source of the keplerian elements: AFSPC

N2YO: 2689